DW7589 Weather Reports


time (UTC)temp
F
wind
direction
speed
knots
gust
knots
rain 1hr
in
rain 24hr
in
rain mn
in
humidity
%
barometer
mb
20260901193245 98 170 1.7 6.1 0.00 0.00 0.00 41 1014.1
20260901192743 98 162 2.6 6.1 0.00 0.00 0.00 40 1014.3
20260901191744 98 164 1.7 6.1 0.00 0.00 0.00 41 1014.3
20260901191243 98 164 2.6 6.1 0.00 0.00 0.00 41 1014.5
20260901190243 98 155 2.6 7.0 0.00 0.00 0.00 41 1014.6
20260901185744 97 161 1.7 6.1 0.00 0.00 0.00 42 1014.7
20260901185243 97 154 1.7 6.1 0.00 0.00 0.00 42 1014.8
20260901184743 98 153 2.6 7.0 0.00 0.00 0.00 42 1014.8
20260901182244 96 158 2.6 7.0 0.00 0.00 0.00 44 1015.4
20260901181743 96 168 2.6 7.0 0.00 0.00 0.00 44 1015.5
20260901180744 96 152 2.6 7.0 0.00 0.00 0.00 44 1015.6
20260901180244 96 166 2.6 6.1 0.00 0.00 0.00 45 1015.8
20260901175744 96 169 2.6 5.2 0.00 0.00 0.00 46 1015.9
20260901175243 96 183 2.6 5.2 0.00 0.00 0.00 45 1016.0
20260901174743 96 179 2.6 4.3 0.00 0.00 0.00 46 1016.0
20260901174243 96 149 1.7 7.0 0.00 0.00 0.00 45 1016.1
20260901173743 96 165 1.7 7.0 0.00 0.00 0.00 46 1016.2
20260901173243 96 152 1.7 4.3 0.00 0.00 0.00 45 1016.2
20260901172743 96 128 2.6 6.1 0.00 0.00 0.00 45 1016.4
20260901172244 96 130 2.6 6.1 0.00 0.00 0.00 45 1016.4
20260901171743 96 126 1.7 5.2 0.00 0.00 0.00 46 1016.4
20260901171244 95 124 2.6 5.2 0.00 0.00 0.00 46 1016.4
20260901170743 95 126 2.6 6.1 0.00 0.00 0.00 45 1016.4
20260901170243 95 135 1.7 6.1 0.00 0.00 0.00 47 1016.5
20260901165743 95 147 1.7 4.3 0.00 0.00 0.00 48 1016.5
20260901165244 95 137 1.7 4.3 0.00 0.00 0.00 48 1016.5
20260901164744 94 137 2.6 5.2 0.00 0.00 0.00 48 1016.5
20260901164244 94 141 2.6 5.2 0.00 0.00 0.00 50 1016.6
20260901163744 94 127 2.6 5.2 0.00 0.00 0.00 49 1016.7
20260901163244 94 121 1.7 5.2 0.00 0.00 0.00 50 1016.8
20260901162745 94 136 1.7 5.2 0.00 0.00 0.00 50 1016.8
20260901162243 93 160 1.7 5.2 0.00 0.00 0.00 51 1016.9
20260901161745 93 205 1.7 5.2 0.00 0.00 0.00 50 1016.9
20260901161244 93 230 1.7 4.3 0.00 0.00 0.00 51 1016.9
20260901160743 93 183 1.7 4.3 0.00 0.00 0.00 51 1016.9
20260901160243 93 147 1.7 4.3 0.00 0.00 0.00 52 1016.9
20260901155744 92 141 1.7 5.2 0.00 0.00 0.00 52 1016.9
20260901154743 92 158 1.7 4.3 0.00 0.00 0.00 52 1017.0
20260901154245 92 152 1.7 6.1 0.00 0.00 0.00 53 1017.0
20260901153744 92 150 1.7 6.1 0.00 0.00 0.00 53 1017.0
20260901152744 92 151 0.9 3.5 0.00 0.00 0.00 53 1017.0
20260901152243 91 167 0.9 3.5 0.00 0.00 0.00 54 1017.0
20260901151243 91 182 1.7 5.2 0.00 0.00 0.00 56 1017.1
20260901150743 90 164 1.7 3.5 0.00 0.00 0.00 56 1017.1
20260901150244 90 197 0.9 3.5 0.00 0.00 0.00 55 1017.1
20260901145743 90 187 0.9 2.6 0.00 0.00 0.00 56 1017.2
20260901145243 90 166 0.9 3.5 0.00 0.00 0.00 58 1017.2
20260901144743 89 186 0.9 3.5 0.00 0.00 0.00 57 1017.1
20260901143745 88 159 0.9 2.6 0.00 0.00 0.00 60 1017.1
20260901142743 87 222 0.9 2.6 0.00 0.00 0.00 62 1017.1
20260901142245 86 209 0.9 2.6 0.00 0.00 0.00 62 1017.1
20260901141744 86 202 0.9 1.7 0.00 0.00 0.00 63 1017.1
20260901141245 86 231 0.9 2.6 0.00 0.00 0.00 65 1017.2
20260901140744 85 239 0.9 2.6 0.00 0.00 0.00 66 1017.1
20260901140245 84 203 0.9 2.6 0.00 0.00 0.00 71 1017.2
20260901135743 84 186 0.9 2.6 0.00 0.00 0.00 71 1017.1
20260901135245 83 0 0.0 1.7 0.00 0.00 0.00 73 1017.1
20260901134743 83 0 0.0 1.7 0.00 0.00 0.00 74 1017.1
20260901133744 82 141 0.9 2.6 0.00 0.00 0.00 77 1017.1
20260901133244 81 129 1.7 2.6 0.00 0.00 0.00 79 1017.1
20260901132744 81 130 1.7 2.6 0.00 0.00 0.00 79 1017.1
20260901132243 80 139 0.9 2.6 0.00 0.00 0.00 80 1017.1
20260901131743 80 141 0.9 1.7 0.00 0.00 0.00 80 1017.1
20260901131244 80 142 0.9 1.7 0.00 0.00 0.00 81 1017.0
20260901130744 79 0 0.0 1.7 0.00 0.00 0.00 82 1017.0
20260901130243 79 0 0.0 1.7 0.00 0.00 0.00 82 1016.9
20260901125744 78 135 0.9 1.7 0.00 0.00 0.00 82 1016.9
20260901125245 78 143 0.9 1.7 0.00 0.00 0.00 82 1016.8
20260901124745 78 157 0.9 1.7 0.00 0.00 0.00 82 1016.7
20260901124244 78 0 0.0 1.7 0.00 0.00 0.00 83 1016.6
20260901123745 78 0 0.0 0.9 0.00 0.00 0.00 83 1016.5
20260901123243 78 0 0.0 0.9 0.00 0.00 0.00 84 1016.5
20260901122745 77 0 0.0 0.9 0.00 0.00 0.00 84 1016.5
20260901122244 77 0 0.0 0.9 0.00 0.00 0.00 84 1016.4
20260901121744 77 0 0.0 0.0 0.00 0.00 0.00 84 1016.3
20260901121243 77 0 0.0 0.9 0.00 0.00 0.00 85 1016.2
20260901120744 77 0 0.0 0.9 0.00 0.00 0.00 85 1016.3
20260901120244 76 0 0.0 0.9 0.00 0.00 0.00 86 1016.3
20260901115244 76 0 0.0 0.0 0.00 0.00 0.00 85 1016.3
20260901114744 76 0 0.0 0.0 0.00 0.00 0.00 85 1016.3
20260901114243 76 0 0.0 0.9 0.00 0.00 0.00 85 1016.2
20260901113744 76 0 0.0 0.9 0.00 0.00 0.00 85 1016.2
20260901113243 76 0 0.0 0.9 0.00 0.00 0.00 85 1016.2
20260901112743 76 0 0.0 0.0 0.00 0.00 0.00 84 1016.2
20260901112243 76 0 0.0 0.0 0.00 0.00 0.00 84 1016.2
20260901111743 77 0 0.0 0.0 0.00 0.00 0.00 83 1016.1
20260901111244 77 0 0.0 0.0 0.00 0.00 0.00 82 1016.1
20260901110745 77 0 0.0 0.0 0.00 0.00 0.00 82 1016.1
20260901110244 77 0 0.0 0.0 0.00 0.00 0.00 82 1016.0
20260901105744 78 0 0.0 0.0 0.00 0.00 0.00 81 1016.0
20260901105244 78 0 0.0 0.0 0.00 0.00 0.00 80 1016.1
20260901104244 78 0 0.0 0.0 0.00 0.00 0.00 80 1016.1
20260901103743 78 0 0.0 0.9 0.00 0.00 0.00 79 1016.0
20260901103244 78 0 0.0 0.9 0.00 0.00 0.00 79 1016.0
20260901102744 78 0 0.0 0.0 0.00 0.00 0.00 78 1016.0
20260901102243 78 0 0.0 0.0 0.00 0.00 0.00 78 1015.9
20260901101744 79 0 0.0 0.0 0.00 0.00 0.00 77 1015.9
20260901101244 79 0 0.0 0.9 0.00 0.00 0.00 77 1015.9
20260901100743 79 0 0.0 0.9 0.00 0.00 0.00 76 1015.9
20260901100243 80 0 0.0 1.7 0.00 0.00 0.00 76 1015.9
20260901095244 80 0 0.0 1.7 0.00 0.00 0.00 76 1015.9
20260901094743 80 0 0.0 0.9 0.00 0.00 0.00 75 1015.8
20260901094243 80 0 0.0 0.0 0.00 0.00 0.00 75 1015.8
20260901093744 80 0 0.0 0.0 0.00 0.00 0.00 75 1015.8
20260901093244 80 0 0.0 0.0 0.00 0.00 0.00 75 1015.8
20260901092743 80 0 0.0 0.9 0.00 0.00 0.00 75 1015.8
20260901092244 80 0 0.0 0.9 0.00 0.00 0.00 74 1015.8
20260901091743 80 0 0.0 0.9 0.00 0.00 0.00 74 1015.8
20260901091244 80 0 0.0 0.9 0.00 0.00 0.00 73 1015.9
20260901090745 81 0 0.0 0.0 0.00 0.00 0.00 73 1015.8
20260901090243 81 0 0.0 0.9 0.00 0.00 0.00 73 1015.8
20260901085744 81 0 0.0 0.9 0.00 0.00 0.00 73 1015.7
20260901085243 81 0 0.0 0.0 0.00 0.00 0.00 73 1015.7
20260901084745 81 0 0.0 0.9 0.00 0.00 0.00 72 1015.6
20260901084244 81 0 0.0 0.9 0.00 0.00 0.00 72 1015.6
20260901083743 81 0 0.0 0.9 0.00 0.00 0.00 71 1015.6
20260901082744 81 0 0.0 0.9 0.00 0.00 0.00 70 1015.6
20260901081745 82 0 0.0 0.9 0.00 0.00 0.00 69 1015.5
20260901081244 82 0 0.0 0.9 0.00 0.00 0.00 69 1015.5
20260901080745 82 0 0.0 0.9 0.00 0.00 0.00 69 1015.5
20260901080244 82 0 0.0 1.7 0.00 0.00 0.00 69 1015.5
20260901075745 82 175 0.9 1.7 0.00 0.00 0.00 68 1015.5
20260901075243 82 175 0.9 1.7 0.00 0.00 0.00 68 1015.5
20260901074745 82 171 0.9 1.7 0.00 0.00 0.00 67 1015.4
20260901074245 82 170 0.9 1.7 0.00 0.00 0.00 67 1015.4
20260901073743 82 172 0.9 1.7 0.00 0.00 0.00 67 1015.5
20260901073243 82 168 0.9 2.6 0.00 0.00 0.00 66 1015.5
20260901072744 82 165 0.9 2.6 0.00 0.00 0.00 65 1015.4
20260901072244 82 168 0.9 2.6 0.00 0.00 0.00 65 1015.4
20260901071744 82 173 0.9 2.6 0.00 0.00 0.00 64 1015.4
20260901071245 82 171 0.9 2.6 0.00 0.00 0.00 64 1015.5
20260901070743 83 172 0.9 2.6 0.00 0.00 0.00 64 1015.4
20260901070246 83 170 0.9 2.6 0.00 0.00 0.00 63 1015.4
20260901065743 83 171 0.9 2.6 0.00 0.00 0.00 63 1015.3
20260901065243 83 176 1.7 3.5 0.00 0.00 0.00 62 1015.3
20260901064743 83 175 1.7 3.5 0.00 0.00 0.00 62 1015.4
20260901064244 84 173 1.7 3.5 0.00 0.00 0.00 61 1015.4
20260901063744 84 168 0.9 4.3 0.00 0.00 0.00 61 1015.3
20260901062744 84 169 0.9 3.5 0.00 0.00 0.00 61 1015.2
20260901062245 84 171 0.9 3.5 0.00 0.00 0.00 60 1015.1
20260901060744 84 174 1.7 3.5 0.00 0.00 0.00 59 1015.1
20260901060244 85 177 1.7 4.3 0.00 0.00 0.00 59 1015.1
20260901055744 85 175 1.7 4.3 0.00 0.00 0.00 58 1014.9
20260901055244 85 173 1.7 4.3 0.00 0.00 0.00 58 1014.8
20260901054744 85 170 1.7 5.2 0.00 0.00 0.00 58 1014.9
20260901054244 85 163 1.7 5.2 0.00 0.00 0.00 58 1014.9
20260901053244 85 160 1.7 4.3 0.00 0.00 0.00 58 1014.9
20260901052745 85 158 1.7 4.3 0.00 0.00 0.00 58 1014.9
20260901052244 85 157 1.7 3.5 0.00 0.00 0.00 58 1015.0
20260901050744 85 157 1.7 4.3 0.00 0.00 0.00 57 1014.7
20260901050244 85 157 1.7 2.6 0.00 0.00 0.00 57 1014.7
20260901045745 85 158 0.9 2.6 0.00 0.00 0.00 56 1014.6
20260901045244 85 162 0.9 2.6 0.00 0.00 0.00 55 1014.6
20260901044243 84 0 0.0 2.6 0.00 0.00 0.00 52 1014.5
20260901043744 84 0 0.0 0.9 0.00 0.00 0.00 51 1014.5
20260901042745 85 170 0.9 2.6 0.00 0.00 0.00 50 1014.5
20260901041744 85 0 0.0 0.9 0.00 0.00 0.00 50 1014.3
20260901041244 85 0 0.0 0.9 0.00 0.00 0.00 50 1014.2
20260901040744 85 0 0.0 0.9 0.00 0.00 0.00 51 1014.2
20260901040244 86 0 0.0 0.9 0.00 0.00 0.00 54 1014.2
20260901034744 87 0 0.0 0.9 0.00 0.00 0.00 53 1014.2
20260901034244 87 0 0.0 0.9 0.00 0.00 0.00 52 1014.2
20260901033244 87 0 0.0 0.9 0.00 0.00 0.00 53 1014.0
20260901032744 87 0 0.0 0.9 0.00 0.00 0.00 54 1014.0
20260901032244 87 0 0.0 0.9 0.00 0.00 0.00 53 1014.0
20260901031744 87 0 0.0 0.9 0.00 0.00 0.00 53 1014.0
20260901031244 87 0 0.0 0.9 0.00 0.00 0.00 52 1013.9
20260901030744 87 0 0.0 0.9 0.00 0.00 0.00 51 1013.9
20260901030244 88 0 0.0 0.9 0.00 0.00 0.00 51 1013.9
20260901025743 88 0 0.0 0.9 0.00 0.00 0.00 50 1013.8
20260901025244 88 0 0.0 0.9 0.00 0.00 0.00 49 1013.8
20260901024744 87 0 0.0 0.9 0.00 0.00 0.00 49 1013.7
20260901024244 88 0 0.0 0.9 0.00 0.00 0.00 48 1013.7
20260901023744 88 158 0.9 0.9 0.00 0.00 0.00 47 1013.7
20260901022744 88 158 0.9 0.9 0.00 0.00 0.00 47 1013.6
20260901022244 88 0 0.0 0.9 0.00 0.00 0.00 47 1013.5
20260901021744 88 0 0.0 0.9 0.00 0.00 0.00 47 1013.5
20260901021244 89 0 0.0 0.9 0.00 0.00 0.00 47 1013.4
20260901020744 89 0 0.0 0.9 0.00 0.00 0.00 46 1013.3
20260901020244 89 0 0.0 0.9 0.00 0.00 0.00 46 1013.3
20260901015745 90 0 0.0 0.9 0.00 0.00 0.00 45 1013.2
20260901015244 90 0 0.0 0.9 0.00 0.00 0.00 45 1013.2
20260901014744 90 0 0.0 0.9 0.00 0.00 0.00 44 1013.1
20260901014244 91 158 0.9 1.7 0.00 0.00 0.00 43 1013.1
20260901013744 91 158 0.9 1.7 0.00 0.00 0.00 42 1013.1
20260901013245 91 0 0.0 1.7 0.00 0.00 0.00 42 1013.0
20260901012744 92 158 0.9 1.7 0.00 0.00 0.00 41 1013.0
20260901012246 92 159 0.9 1.7 0.00 0.00 0.00 41 1012.9
20260901010245 93 160 0.9 1.7 0.00 0.00 0.00 39 1012.8
20260901005745 93 152 0.9 1.7 0.00 0.00 0.00 39 1012.9
20260901005245 94 149 0.9 2.6 0.00 0.00 0.00 38 1012.8
20260901004744 94 151 0.9 2.6 0.00 0.00 0.00 38 1012.9
20260901004244 95 149 1.7 2.6 0.00 0.00 0.00 38 1012.9
20260901003744 95 148 1.7 4.3 0.00 0.00 0.00 37 1012.8
20260901002744 96 149 1.7 3.5 0.00 0.00 0.00 36 1012.9
20260901002244 96 149 1.7 3.5 0.00 0.00 0.00 36 1012.9
20260901001745 96 148 1.7 3.5 0.00 0.00 0.00 36 1012.9
20260901001244 97 148 1.7 3.5 0.00 0.00 0.00 35 1012.8
20260901000746 97 149 1.7 4.3 0.00 0.00 0.00 35 1012.8
20260901000244 97 148 2.6 5.2 0.00 0.00 0.00 35 1012.8
20260831235745 97 146 2.6 5.2 0.00 0.00 0.00 35 1012.8
20260831235245 98 146 2.6 4.3 0.00 0.00 0.00 34 1012.8
20260831234744 98 150 2.6 4.3 0.00 0.00 0.00 33 1012.7
20260831234245 98 152 2.6 5.2 0.00 0.00 0.00 33 1012.7
20260831233745 98 151 2.6 5.2 0.00 0.00 0.00 33 1012.8
20260831233244 98 148 2.6 5.2 0.00 0.00 0.00 33 1012.8
20260831232746 99 144 2.6 5.2 0.00 0.00 0.00 33 1012.8
20260831232245 99 143 2.6 4.3 0.00 0.00 0.00 32 1012.8
20260831231744 99 143 2.6 5.2 0.00 0.00 0.00 32 1012.7
20260831231246 99 144 2.6 5.2 0.00 0.00 0.00 33 1012.8
20260831230746 99 146 2.6 6.1 0.00 0.00 0.00 33 1012.9
20260831230244 99 141 2.6 7.0 0.00 0.00 0.00 33 1013.0
20260831225745 99 142 2.6 7.0 0.00 0.00 0.00 32 1013.0
20260831225244 99 143 2.6 5.2 0.00 0.00 0.00 32 1013.0
20260831224745 99 146 2.6 6.1 0.00 0.00 0.00 32 1013.0
20260831224245 100 160 2.6 6.1 0.00 0.00 0.00 31 1012.9
20260831223245 100 151 2.6 5.2 0.00 0.00 0.00 30 1013.0
20260831222744 100 150 1.7 5.2 0.00 0.00 0.00 29 1013.1
20260831222246 100 151 1.7 4.3 0.00 0.00 0.00 29 1013.1
20260831221744 100 160 1.7 4.3 0.00 0.00 0.00 29 1013.1
20260831221245 100 158 1.7 6.1 0.00 0.00 0.00 29 1013.1
20260831220744 100 157 2.6 6.1 0.00 0.00 0.00 29 1013.1
20260831220245 100 164 2.6 4.3 0.00 0.00 0.00 29 1013.1
20260831215244 101 144 1.7 5.2 0.00 0.00 0.00 29 1013.3
20260831214745 101 146 1.7 4.3 0.00 0.00 0.00 28 1013.3
20260831214244 100 148 2.6 7.0 0.00 0.00 0.00 26 1013.3
20260831213745 100 144 2.6 7.0 0.00 0.00 0.00 28 1013.4
20260831212745 100 162 1.7 6.1 0.00 0.00 0.00 30 1013.5
20260831212245 100 173 1.7 3.5 0.00 0.00 0.00 32 1013.6
20260831211745 99 171 1.7 4.3 0.00 0.00 0.00 31 1013.6
20260831211246 99 161 2.6 5.2 0.00 0.00 0.00 32 1013.7
20260831210744 98 150 3.5 8.7 0.00 0.00 0.00 33 1013.9
20260831205744 100 162 2.6 7.0 0.00 0.00 0.00 33 1014.0
20260831205244 99 150 3.5 7.8 0.00 0.00 0.00 33 1014.1
20260831204744 99 144 3.5 7.8 0.00 0.00 0.00 33 1014.1
20260831204245 99 143 3.5 7.8 0.00 0.00 0.00 31 1014.3
20260831203746 99 142 3.5 7.0 0.00 0.00 0.00 34 1014.3
20260831203245 99 148 3.5 7.0 0.00 0.00 0.00 34 1014.4
20260831202744 98 156 2.6 7.0 0.00 0.00 0.00 35 1014.6
20260831202245 99 140 2.6 7.8 0.00 0.00 0.00 34 1014.6
20260831201245 99 142 3.5 7.8 0.00 0.00 0.00 36 1014.9
20260831200245 100 148 3.5 8.7 0.00 0.00 0.00 35 1015.0
20260831195745 99 152 3.5 7.0 0.00 0.00 0.00 36 1014.9
20260831194244 98 149 3.5 7.0 0.00 0.00 0.00 37 1015.1